Location: Beddau
(51.5575°N, 3.3561°W)
Time: 12:10:22
(UTC+00:00)

USA 281 - Pass Details

Date: 03 March 2021
Orbit: 1076 x 1083 km, 106.0° (Epoch: 15 April)

Event Time Altitude Azimuth Distance (km) Brightness Sun altitude
Exits shadow 21:34:26 44° 26° (NNE) 1,457 3.8 -32.8°
Drops below altitude 10° 21:39:41 10° 340° (NNW) 2,928 6.1 -33.5°
Sets 21:42:17 0° 335° (NNW) 3,888 7.0 -33.8°
